Vertical_Velocity
-0 -0 -0 -0 -0 -2 -2 -1 -1 -1 0 -1 -1 -1 -0 -0 0 0 1 1 -0 -0 -1 -3 -1 0 -0 -2 -4 -2 -3 -3 0 -1 2 1 0 -4 1 -3 -3 0 2
-1 1 1 2 2 -0 -0 0 0 -2 -2 0 -3 -0 -1 -1 -2 -1 -1 -2 -1 -0 -3 -4 -3 -2 1 -1 -2 -2 -1 -3 -2 0 -1 0 2 3 -0 -1 1 -2 -3
1 0 -2 -2 0 1 2 -1 -0 0 0 1 0 -1 1 1 1 -0 0 -1 -2 -3 -2 -3 -1 -1 -1 -1 -2 -3 -1 -3 -2 1 -2 0 -3 3 3 1 3 0 1
-0 -0 1 2 1 0 -0 1 2 0 -5 -3 -2 -2 -1 1 -2 -3 -2 -0 3 2 0 1 1 0 1 -1 -1 -1 -3 0 -3 -1 1 -2 -1 -0 -2 1 2 2 0
0 1 1 1 -0 0 0 -0 -0 1 1 -1 -1 -0 1 -2 -2 -2 0 -2 -2 -3 -2 -0 -1 1 2 -2 0 -3 -1 -0 -1 -1 -2 -1 -3 1 3 -3 -4 -2 -6
1 -2 -1 0 1 -1 -1 1 -0 0 -1 -1 -3 -2 1 -1 -3 -0 -0 -1 2 2 2 -0 2 4 3 -1 -1 2 -0 -0 -1 4 -2 -1 -2 -1 1 2 2 0 -2
2 4 -0 -1 1 -1 -1 -2 -3 -3 -0 -2 -2 -1 -2 1 -1 -2 1 1 -3 2 -0 -1 3 3 2 1 -1 3 -1 1 2 3 -0 -1 -0 -4 -1 -1 0 3 1
0 0 -2 -1 2 -0 -1 -2 1 -1 2 2 1 1 3 2 -4 -1 -0 0 2 2 0 4 4 3 2 1 -1 -1 -0 -1 0 7 1 0 0 -3 -2 0 -3 1 -4
-1 1 3 -1 -1 -1 -1 2 2 1 -0 -1 -2 -1 -3 3 -1 -5 0 2 3 1 2 1 3 1 -2 -0 1 -0 -1 -2 1 2 1 1 1 -0 -0 0 -5 -0 -2
-2 -0 -1 -2 0 3 2 2 2 -2 -1 -1 1 3 -1 1 -2 0 -2 0 1 -1 -0 3 2 2 -3 -1 1 0 1 0 2 1 -1 1 0 -3 -2 -2 -2 -2 -5
0 1 1 -2 -4 -6 -3 -2 2 3 -4 -4 -2 -3 -4 -0 1 2 -2 5 -0 2 3 1 -0 0 2 -1 -1 0 1 2 0 0 1 1 0 -0 -2 -3 -2 -2 -2
1 -1 -1 -1 0 -0 -1 -4 1 -5 -2 -3 -3 -3 -1 -1 2 -2 1 1 1 2 1 2 1 2 -0 0 0 1 1 2 0 -0 1 -0 -0 -1 -2 -2 -2 -3 -5
-1 2 -3 -2 -3 -1 -2 -2 1 0 -3 -2 -4 -1 -2 1 0 -2 -0 2 1 1 1 1 0 -0 -0 -0 -0 0 0 2 0 1 1 -1 -1 -3 -2 0 -2 -3 0
1 4 4 -2 1 -0 -1 1 -4 -1 -4 -1 -1 -2 -0 2 1 -0 0 0 -0 -0 1 2 1 -1 1 1 -0 -1 1 0 1 2 1 -1 -2 -2 -1 -1 -1 -4 -1
-4 1 2 -3 -2 2 1 -0 -1 1 -1 -1 1 -1 -1 1 1 4 -0 -1 1 -0 2 1 0 1 1 0 0 -0 -1 0 1 1 -1 -2 -2 -1 -2 -3 -4 -2 -2
-0 2 7 -2 4 -3 -4 2 3 6 2 0 -2 1 0 0 2 1 1 1 0 -0 1 -1 1 -1 -1 0 -0 -1 -1 1 1 -0 -0 -0 -2 -2 0 -3 -3 -1 -1
-7 -1 -3 -1 -4 -2 -2 -1 1 1 2 -1 0 -1 2 3 4 -2 1 1 0 2 2 0 0 -1 -0 1 0 -0 -0 1 1 -1 -1 -1 -1 -2 -1 -2 -2 -3 0
1 1 -5 1 -1 -0 4 2 -0 6 1 2 -1 -1 0 2 2 4 4 -0 -2 -2 1 1 -1 1 -1 1 -0 -0 -0 0 1 -0 -0 -0 -1 0 -1 -3 -3 -2 -2
-1 2 -2 -2 3 1 5 4 2 0 5 2 0 1 2 -1 2 3 3 0 -0 -2 1 1 0 1 -0 1 0 0 -1 0 1 -0 0 -0 -2 -0 -2 -1 2 -2 -2
1 3 -2 -2 4 0 1 3 2 1 1 2 2 3 1 0 4 0 1 0 -1 -1 -1 -1 -1 0 0 0 1 -0 -2 -0 0 -0 -1 -1 -2 -2 -1 3 -2 0 -1
-2 1 -4 -2 -1 -0 1 5 1 2 3 2 3 3 1 1 3 4 -1 1 -1 -1 -3 -0 -2 1 1 0 1 -0 -1 0 2 -0 -0 -2 -0 -1 -1 0 -1 -2 -3
-2 -1 -1 -0 1 3 2 4 3 3 5 2 1 1 -1 3 1 -0 -3 0 -0 -2 -2 -0 -1 2 2 -0 0 -1 -1 0 0 -0 -0 -1 -1 -1 -0 -2 -3 -3 -1
-2 1 -0 1 1 2 2 2 3 4 2 -0 1 2 1 2 1 2 -1 1 1 -1 -1 -1 -0 1 2 1 0 -0 -0 1 1 0 0 -1 -2 -0 -1 -2 -1 -0 -4
-2 -0 -1 2 -1 -1 3 4 2 0 1 1 1 2 2 3 1 4 2 2 0 -1 3 1 1 2 2 0 -1 -0 -1 1 0 -0 1 -1 -2 -1 -0 -2 -1 -0 1
2 1 -1 2 -1 -1 -2 5 3 1 1 2 -0 1 2 -0 2 3 1 1 -0 -0 1 1 2 2 1 1 -0 -0 0 1 1 1 1 -0 -0 -1 -0 1 2 2 -2
-0 0 -0 -1 -0 0 -0 3 2 3 0 -2 2 3 2 -0 1 2 2 2 0 -1 -0 2 2 1 1 1 0 1 1 1 0 2 1 -1 0 0 2 0 -1 -1 -0
Height
5735 5732 5728 5724 5720 5718 5715 5711 5707 5703 5698 5694 5689 5684 5679 5674 5669 5663 5657 5651 5646 5641 5636 5631 5626 5621 5616 5611 5606 5603 5600 5598 5596 5592 5590 5588 5585 5581 5577 5576 5574 5573 5573
5726 5722 5719 5716 5712 5708 5705 5701 5697 5692 5688 5684 5678 5673 5667 5661 5655 5649 5643 5638 5633 5627 5622 5617 5612 5607 5603 5598 5593 5589 5587 5585 5583 5580 5578 5576 5575 5572 5569 5566 5565 5564 5564
5718 5714 5710 5706 5703 5699 5695 5690 5686 5682 5677 5672 5666 5661 5654 5648 5642 5635 5630 5624 5618 5612 5606 5601 5597 5592 5587 5583 5579 5575 5571 5570 5568 5566 5564 5563 5562 5562 5560 5558 5555 5553 5554
5709 5705 5701 5697 5693 5689 5684 5679 5675 5670 5665 5659 5654 5648 5641 5634 5627 5620 5613 5607 5601 5595 5590 5584 5580 5576 5572 5567 5563 5559 5555 5553 5553 5552 5551 5549 5548 5548 5547 5547 5545 5544 5542
5698 5694 5690 5686 5681 5676 5671 5666 5661 5656 5650 5643 5638 5631 5624 5618 5610 5604 5597 5591 5584 5579 5574 5570 5566 5560 5556 5551 5546 5542 5540 5537 5537 5537 5537 5536 5535 5534 5534 5534 5533 5531 5530
5687 5682 5678 5673 5667 5662 5657 5652 5646 5640 5633 5628 5620 5614 5608 5601 5594 5587 5580 5573 5567 5561 5556 5551 5547 5543 5538 5534 5531 5528 5525 5523 5521 5522 5522 5522 5522 5521 5521 5521 5520 5519 5517
5674 5669 5663 5658 5653 5647 5641 5635 5629 5623 5616 5610 5604 5597 5590 5583 5576 5569 5561 5555 5549 5545 5541 5535 5531 5528 5524 5519 5514 5512 5511 5509 5507 5507 5507 5507 5507 5507 5507 5507 5505 5504 5502
5661 5655 5649 5644 5638 5632 5626 5619 5613 5607 5601 5595 5588 5580 5573 5564 5557 5550 5543 5537 5531 5527 5523 5519 5515 5511 5508 5504 5501 5498 5496 5495 5494 5494 5494 5494 5494 5493 5493 5492 5491 5489 5486
5644 5638 5633 5627 5622 5617 5611 5604 5598 5592 5586 5580 5572 5564 5556 5548 5540 5532 5527 5521 5516 5512 5508 5505 5501 5498 5494 5491 5488 5485 5483 5481 5481 5481 5481 5482 5481 5481 5480 5479 5476 5474 5471
5628 5623 5617 5611 5607 5601 5596 5590 5582 5575 5569 5563 5556 5547 5539 5531 5522 5516 5510 5506 5502 5498 5495 5492 5488 5485 5481 5478 5476 5473 5470 5469 5469 5469 5469 5469 5469 5467 5466 5464 5461 5459 5455
5614 5608 5602 5596 5590 5584 5579 5572 5566 5558 5551 5546 5539 5530 5522 5514 5506 5501 5497 5494 5489 5485 5482 5479 5475 5472 5469 5466 5463 5461 5460 5459 5459 5458 5458 5458 5456 5455 5453 5450 5447 5444 5441
5599 5592 5585 5580 5574 5567 5560 5553 5548 5540 5534 5528 5521 5513 5506 5498 5492 5488 5484 5481 5477 5474 5470 5466 5463 5460 5457 5455 5452 5451 5450 5449 5448 5448 5448 5446 5445 5443 5441 5438 5435 5432 5430
5581 5574 5568 5561 5555 5548 5541 5535 5530 5521 5516 5510 5504 5496 5489 5484 5479 5475 5472 5469 5465 5462 5458 5455 5452 5449 5446 5443 5442 5441 5440 5439 5439 5438 5437 5436 5435 5432 5429 5427 5425 5423 5420
5560 5554 5548 5542 5536 5528 5522 5515 5510 5504 5498 5492 5485 5480 5476 5471 5467 5463 5460 5457 5453 5450 5448 5446 5442 5438 5435 5433 5432 5431 5431 5430 5430 5428 5427 5425 5424 5422 5419 5419 5417 5413 5410
5537 5532 5526 5518 5513 5508 5501 5496 5490 5486 5479 5475 5469 5465 5462 5459 5456 5453 5449 5446 5443 5441 5439 5435 5431 5428 5426 5425 5424 5423 5422 5421 5420 5418 5417 5416 5414 5412 5410 5409 5407 5404 5400
5517 5510 5504 5495 5490 5484 5479 5475 5470 5466 5462 5459 5455 5452 5450 5448 5445 5443 5440 5438 5435 5432 5429 5426 5422 5419 5418 5417 5415 5414 5413 5412 5411 5409 5408 5407 5405 5403 5402 5400 5397 5394 5388
5490 5484 5478 5471 5465 5460 5454 5451 5449 5446 5444 5443 5441 5439 5438 5437 5435 5433 5431 5429 5427 5424 5421 5417 5414 5411 5409 5408 5406 5405 5404 5403 5402 5400 5399 5397 5396 5395 5393 5391 5388 5383 5377
5463 5457 5450 5446 5440 5436 5432 5429 5427 5426 5425 5426 5426 5425 5425 5425 5424 5423 5422 5420 5418 5415 5412 5409 5406 5403 5401 5399 5398 5396 5395 5394 5393 5392 5390 5388 5387 5386 5384 5381 5378 5372 5367
5437 5431 5424 5420 5415 5409 5406 5406 5406 5406 5407 5408 5410 5410 5410 5410 5411 5411 5410 5409 5408 5405 5404 5401 5398 5395 5392 5391 5389 5388 5386 5385 5384 5383 5381 5380 5378 5377 5375 5372 5368 5362 5357
5410 5403 5396 5392 5389 5386 5384 5384 5385 5387 5389 5392 5394 5395 5395 5397 5398 5398 5398 5397 5396 5395 5394 5392 5389 5386 5384 5382 5381 5379 5378 5376 5376 5375 5373 5372 5370 5368 5366 5362 5358 5353 5349
5386 5380 5374 5370 5367 5365 5364 5365 5367 5370 5373 5376 5379 5380 5382 5383 5384 5385 5385 5385 5385 5384 5383 5382 5380 5377 5375 5373 5372 5371 5369 5368 5368 5367 5365 5364 5363 5360 5357 5354 5349 5344 5340
5369 5364 5359 5356 5352 5350 5349 5350 5352 5355 5358 5361 5365 5367 5368 5370 5370 5372 5372 5373 5372 5372 5372 5371 5369 5368 5366 5365 5364 5362 5361 5361 5361 5360 5358 5357 5355 5353 5350 5346 5341 5336 5332
5357 5353 5350 5347 5344 5342 5340 5339 5340 5342 5345 5349 5352 5354 5356 5358 5360 5361 5360 5361 5361 5360 5360 5360 5359 5358 5357 5356 5355 5354 5353 5354 5353 5353 5352 5351 5349 5346 5343 5339 5334 5329 5324
5350 5346 5343 5340 5338 5335 5333 5332 5331 5333 5336 5338 5341 5343 5345 5348 5350 5351 5351 5351 5350 5350 5350 5349 5349 5348 5348 5347 5346 5346 5346 5347 5347 5347 5346 5345 5342 5339 5336 5332 5328 5323 5317
5342 5337 5334 5331 5329 5327 5326 5324 5323 5324 5326 5330 5332 5334 5336 5337 5339 5342 5342 5342 5341 5340 5340 5340 5339 5339 5339 5339 5338 5338 5339 5340 5340 5340 5340 5338 5336 5333 5330 5326 5322 5316 5310
5333 5329 5325 5321 5318 5316 5316 5316 5316 5316 5318 5320 5323 5324 5325 5327 5331 5333 5334 5334 5333 5332 5331 5331 5331 5330 5331 5331 5331 5331 5332 5333 5333 5334 5333 5331 5329 5327 5324 5320 5315 5310 5304